Flag for Canada Weather past 2 weeks in Hamilton, Ontario, Canada

Now
28 °F

Snow flurries. Low clouds.


Feels Like: 16 °F
Forecast: 29 / 34 °F
Wind: 18 mph from West

Location: Hamilton Airport

Current Time: Dec 18, 2014 at 4:58:05 AM

Latest Report: Dec 18, 2014 at 4:00 AM


Visibility: 5 mi

Pressure: 30.09 "Hg

Humidity: 86%

Dew point: 25 °F

Location of HamiltonLocation

Historic Weather in Hamilton — Graph

°F

Hamilton temperature yesterday

Maximum temperature yesterday: 43 °F (at 12:00 AM)
Minimum temperature yesterday: 28 °F (at 9:00 PM)
Average temperature yesterday: 35 °F

Past Weeks' High & Low Weather Summary

 TemperatureHumidityPressure
High43 °F (Dec 16, 9:00 PM)100% (Dec 3, 3:00 AM)30.78 "Hg (Dec 3, 3:00 AM)
Low21 °F (Dec 4, 5:00 AM)47% (Dec 11, 6:00 PM)29.71 "Hg (Dec 16, 1:54 PM)
Average32 °F82%30.14 "Hg
* Reported Dec 3 3:00 AM — Dec 18 3:00 AM, Hamilton, Weather by CustomWeather, © 2014

Note: Actual official high and low records may vary slightly from our data, if they occured in-between our weather recording intervals... More about our weather records

Advertising

Hamilton weather history for previous 24 hours

 ConditionsComfort  
Time TempWeatherWind HumidityBarometerVisibility
3:00 AM
Dec 18
28 °FSnow flurries. Low clouds.14 mph86%30.08 "Hg5 mi
2:00 AM28 °FSnow flurries. Overcast.15 mph86%30.06 "Hg10 mi
1:00 AM28 °FOvercast.14 mph86%30.04 "Hg15 mi
12:00 AM28 °FSnow flurries. Mostly cloudy.14 mph86%30.04 "Hg15 mi
11:00 PM
Dec 17
28 °FSnow flurries. Mostly cloudy.18 mph86%30.02 "Hg15 mi
10:00 PM28 °FSnow flurries. Mostly cloudy.18 mph86%30.03 "Hg5 mi
9:00 PM28 °FSnow flurries. Ice fog.16 mph93%30.02 "Hg1 mi
8:00 PM30 °FSnow flurries. Overcast.16 mph86%30.01 "Hg6 mi
7:00 PM30 °FSnow flurries. Overcast.17 mph86%30.01 "Hg6 mi
6:00 PM32 °FSnow flurries. Overcast.14 mph80%29.98 "Hg15 mi
5:47 PM32 °FSnow flurries. Overcast.18 mph80%29.97 "Hg15 mi
5:00 PM32 °FOvercast.20 mph87%29.97 "Hg15 mi
4:00 PM32 °FOvercast.18 mph87%29.96 "Hg9 mi
3:00 PM32 °FScattered showers. Overcast.18 mph93%29.95 "Hg8 mi
2:00 PM32 °FLight snow. Mostly cloudy.22 mph93%29.93 "Hg6 mi
1:00 PM34 °FLight snow. Mostly cloudy.18 mph81%29.92 "Hg6 mi
12:00 PM34 °FLight snow. Mostly cloudy.20 mph87%29.91 "Hg15 mi
11:00 AM34 °FLight snow. Fog.16 mph93%29.92 "Hg3 mi
10:00 AM34 °FLight snow. Fog.16 mph87%29.91 "Hg2 mi
9:47 AM34 °FLight snow. Fog.20 mph87%29.91 "Hg3 mi
9:00 AM34 °FLight snow. Fog.16 mph93%29.89 "Hg6 mi
8:00 AM36 °FLight rain. Mostly cloudy.15 mph87%29.87 "Hg8 mi
7:00 AM37 °FLight rain. Mostly cloudy.20 mph87%29.85 "Hg15 mi
6:00 AM39 °FLight rain. Fog.16 mph93%29.82 "Hg6 mi
5:00 AM41 °FLight rain. Mostly cloudy.13 mph93%29.80 "Hg8 mi
4:00 AM43 °FMostly cloudy.13 mph93%29.79 "Hg7 mi
Weather by CustomWeather, © 2014

See weather overviewHow to use our weather pages